Wind_Speed
29 29 29 30 30 30 28 27 28 27 26 25 25 24 24 26 25 24 22 20 20 20 20 18 18 18 17 17 17 16 16 16 16 15 15 15 15 15 15 15 15 15 15 15 15 15 15 15 15
29 30 30 30 31 29 28 28 29 28 27 26 26 26 26 27 25 24 23 22 22 21 20 20 19 19 19 19 18 18 18 18 18 17 17 17 17 17 17 17 17 17 17 17 18 18 18 18 17
30 31 31 31 30 29 28 30 30 29 28 28 28 28 28 26 24 25 24 24 23 22 21 21 20 20 20 20 20 19 19 19 19 19 19 19 19 19 19 19 19 19 19 19 20 20 20 20 20
31 31 31 31 29 29 30 30 29 28 28 28 29 29 28 26 26 26 26 25 24 23 22 22 22 21 21 21 21 21 21 21 20 20 20 20 20 20 20 20 20 20 20 21 21 21 21 22 22
32 32 32 31 29 30 30 29 28 28 29 29 29 29 28 28 28 28 27 26 25 24 23 23 23 22 22 22 22 22 21 21 21 21 21 21 21 21 21 21 22 22 22 22 22 22 22 23 23
32 32 32 30 29 30 30 29 29 29 30 30 30 29 28 28 28 28 28 27 26 25 24 24 23 23 23 23 23 22 22 21 21 21 21 22 22 22 23 23 23 23 24 24 24 24 24 24 24
32 32 32 31 31 30 30 30 30 30 30 30 30 30 29 28 28 28 28 27 26 26 25 24 24 24 23 23 23 22 22 22 22 22 22 22 22 23 23 24 24 24 24 24 25 25 25 25 25
33 33 32 31 31 31 31 30 30 30 30 30 30 30 28 27 28 28 28 27 26 26 25 25 24 24 24 23 23 23 23 23 23 23 23 23 24 24 24 25 25 25 25 25 26 26 26 26 27
34 33 31 30 32 32 31 30 31 30 30 30 30 29 28 27 28 28 27 27 27 26 26 25 25 25 25 24 24 24 24 24 24 24 24 24 25 25 25 26 26 26 27 27 27 28 28 28 29
34 33 31 32 32 32 31 30 31 31 30 31 30 30 29 28 28 28 27 28 27 27 27 26 26 26 26 26 26 26 25 25 26 26 26 26 26 26 27 27 28 28 29 29 30 30 30 30 31
34 33 32 32 32 32 31 31 31 32 31 31 31 30 29 29 29 29 28 28 28 28 28 27 27 27 27 27 27 27 27 27 27 27 27 27 27 28 28 29 29 30 30 30 31 31 31 31 32
35 34 33 33 32 32 32 32 32 32 32 32 31 31 30 30 30 29 29 29 29 29 29 28 28 28 28 28 29 28 28 29 29 29 29 29 28 29 29 29 30 30 30 31 31 31 32 32 33
36 35 35 34 33 32 32 32 32 31 31 31 31 31 30 30 30 30 29 29 29 29 29 29 29 29 29 29 29 30 30 30 30 30 30 29 29 29 30 30 31 31 31 32 32 32 33 33 34
37 36 35 35 34 33 33 32 32 31 31 31 31 31 31 30 30 30 29 29 29 29 29 30 30 30 30 30 30 30 30 30 30 30 30 30 30 30 30 30 31 32 32 33 34 34 35 35 36
37 37 36 35 34 34 34 33 31 31 31 31 31 31 31 31 30 29 29 29 29 29 29 29 29 30 29 29 29 30 30 30 30 30 30 30 30 30 31 31 32 32 33 34 35 36 37 37 38
38 38 37 35 35 34 34 32 31 31 31 31 31 31 31 31 31 30 30 29 29 29 29 29 29 29 29 29 29 29 29 30 30 30 30 31 31 32 33 33 33 34 35 36 37 38 39 40 41
39 38 37 36 36 35 35 33 32 32 31 31 31 31 31 31 31 31 30 30 30 29 29 30 30 30 30 30 30 30 30 30 31 31 32 33 33 33 34 34 35 36 37 38 40 40 42 43 44
38 38 38 38 37 36 36 35 34 33 33 32 32 31 31 31 31 31 31 30 30 30 29 30 30 31 31 31 31 31 32 32 32 33 34 34 35 35 36 37 38 39 40 41 42 43 45 45 46
39 39 38 39 38 38 37 37 36 35 34 34 33 32 32 32 32 31 31 31 30 30 30 30 30 31 31 32 32 32 33 33 34 34 35 35 36 37 38 39 40 41 42 43 44 45 46 47 48
41 40 39 40 39 38 38 38 37 36 35 35 34 33 32 32 33 32 32 31 31 31 31 31 31 31 32 32 33 33 34 34 35 36 36 37 38 39 40 41 42 43 44 45 46 47 48 48 50
42 40 39 40 40 40 39 39 38 37 36 36 35 34 34 34 33 33 33 33 32 32 32 32 32 32 32 33 33 34 34 35 36 37 38 39 40 41 43 44 44 45 46 47 48 49 50 51 52
42 41 41 41 41 40 41 41 38 37 37 36 35 35 35 34 34 34 34 34 33 33 33 33 33 33 33 33 34 34 35 36 37 38 39 41 42 43 44 45 46 47 48 49 50 51 52 53 54
43 42 42 42 42 43 42 42 40 38 37 36 35 36 35 35 35 35 34 34 35 34 34 34 34 34 34 35 35 36 37 37 38 40 41 42 43 44 45 46 47 48 50 51 51 53 54 55 56
44 43 43 43 44 45 42 43 42 39 38 36 35 36 36 36 36 36 35 35 36 35 35 35 35 35 36 36 37 37 38 39 40 41 42 43 44 45 46 47 48 50 51 52 53 55 56 56 57
45 45 44 45 46 46 43 44 44 40 38 37 36 37 37 37 37 37 36 36 36 36 36 36 36 37 37 38 38 39 39 40 41 42 43 44 45 46 47 48 50 51 53 54 55 56 57 58 58
45 45 44 44 45 46 44 45 44 41 40 39 38 38 38 38 38 38 37 37 37 37 37 38 38 38 39 39 40 41 41 42 43 44 45 45 46 47 49 50 52 53 54 55 57 58 58 58 58
45 45 44 44 45 46 46 46 44 42 41 40 40 39 39 39 39 39 38 38 38 38 38 39 39 40 41 41 42 43 44 44 45 46 46 47 48 49 51 52 53 55 56 57 58 59 59 59 59
45 44 44 45 45 45 46 45 45 43 42 41 40 40 40 40 39 39 39 39 39 39 40 40 40 41 42 43 44 44 45 46 47 48 48 49 50 51 52 54 55 56 57 57 58 59 59 58 58
44 45 45 45 46 45 44 45 45 44 43 42 41 41 40 40 40 40 40 40 40 40 41 41 42 43 43 44 45 45 46 47 48 49 50 51 52 53 54 55 56 57 57 57 58 58 57 56 56
44 45 45 46 46 45 44 45 43 42 42 42 42 41 41 41 41 40 41 41 41 41 42 43 43 44 45 46 46 47 47 48 49 50 51 52 53 54 55 56 56 57 57 56 56 56 55 55 54
Wind_Direction
236 236 236 237 238 238 239 240 240 240 239 240 241 242 243 244 246 250 251 249 249 249 249 249 249 249 251 252 253 254 256 258 260 261 261 262 263 265 266 267 268 269 270 271 274 274 276 276 278
236 236 237 237 238 239 240 240 241 240 239 240 240 240 242 244 246 250 250 249 248 249 249 248 249 250 252 254 255 255 257 259 261 262 263 263 264 265 266 267 268 268 269 270 272 275 276 277 278
235 235 236 237 238 239 240 240 240 240 239 239 240 240 242 244 246 248 249 248 248 248 248 249 250 251 253 254 256 257 258 259 261 263 263 263 264 265 267 268 270 269 270 271 272 274 276 277 278
234 235 236 237 237 238 240 242 241 242 241 240 240 241 242 244 245 246 247 248 248 248 248 249 251 253 254 255 257 258 259 260 261 262 263 263 264 266 267 269 270 271 271 272 273 274 275 276 277
235 235 236 237 237 237 239 242 242 241 241 241 241 241 241 242 242 245 246 247 248 248 248 250 251 253 255 256 257 258 259 260 262 263 263 264 266 267 268 270 271 271 272 273 274 274 275 275 276
235 236 238 237 236 238 240 241 241 241 241 241 242 242 240 242 242 244 245 246 247 247 248 250 252 253 254 255 257 258 259 260 262 264 265 266 267 268 269 270 271 272 273 274 274 275 275 276 277
235 236 237 236 236 237 238 239 240 240 242 241 242 242 240 241 243 244 245 246 246 247 248 250 251 252 253 254 256 258 259 261 263 265 266 268 269 270 271 272 272 273 274 275 275 275 276 276 277
235 236 236 236 236 236 237 238 239 240 240 242 241 242 242 242 243 243 244 245 246 247 248 249 251 252 253 254 256 258 260 261 263 266 267 269 270 271 272 273 273 274 275 276 277 277 277 278 278
234 235 235 235 236 236 237 237 238 239 240 241 242 243 242 241 243 244 244 245 247 248 249 249 251 253 254 255 257 259 260 262 264 266 268 269 270 271 273 274 274 275 276 277 277 278 279 278 279
235 235 234 235 236 237 237 237 238 238 239 241 241 241 241 241 243 245 245 246 247 248 250 251 253 254 255 256 258 260 261 263 265 267 269 270 271 272 273 274 275 276 277 277 278 279 279 279 279
235 235 234 235 236 238 237 237 238 240 240 241 242 241 242 242 244 246 247 248 248 249 250 252 254 256 257 257 258 260 262 264 266 268 269 270 271 272 274 275 276 277 278 278 278 278 279 279 279
234 233 233 234 235 237 237 237 239 240 241 241 242 243 243 244 246 247 248 250 250 250 251 253 254 256 257 258 259 260 262 265 267 268 269 270 271 273 274 275 277 277 278 278 278 279 280 280 280
233 233 233 234 235 236 237 238 238 239 241 242 243 243 243 244 245 247 249 250 250 250 251 253 255 256 258 260 261 262 264 266 267 268 269 270 271 273 273 275 276 277 278 278 279 279 280 281 281
232 232 233 233 234 235 236 237 238 239 241 242 242 243 243 245 246 247 249 250 251 251 252 254 256 258 260 261 263 264 265 266 267 268 269 270 272 273 274 275 276 277 278 279 281 280 281 282 283
232 232 232 233 234 235 237 237 238 239 240 242 242 243 244 245 246 247 249 249 250 251 253 255 256 258 260 262 263 264 265 266 267 268 268 270 271 273 274 276 277 278 279 281 282 282 282 283 284
232 232 232 233 234 235 237 236 237 239 241 242 243 244 244 245 246 247 249 250 251 252 254 255 257 258 259 261 263 265 266 267 267 268 269 270 272 274 275 277 278 279 281 282 283 284 284 285 285
232 233 234 234 234 235 237 237 237 239 241 242 243 244 245 245 246 248 249 250 252 253 254 256 258 259 260 262 264 266 267 267 268 269 270 272 273 275 276 278 279 280 282 284 285 286 286 286 286
234 235 235 236 235 237 238 238 238 239 241 242 244 245 245 246 246 247 249 251 252 254 256 258 260 261 262 263 264 266 267 268 270 271 272 273 275 276 277 279 281 282 283 285 286 286 286 287 287
234 235 235 237 237 237 238 239 239 239 241 243 244 245 246 246 246 248 249 251 254 256 258 260 261 263 264 264 265 266 267 269 271 272 273 274 275 277 278 280 282 283 284 286 287 288 288 288 288
233 234 235 237 238 238 239 240 240 241 242 243 244 246 247 247 247 248 250 252 255 257 259 261 263 264 265 266 267 268 269 270 272 273 273 275 276 278 280 281 283 284 285 287 288 289 290 290 289
233 234 235 238 239 239 240 240 241 241 242 243 244 245 246 247 248 249 251 253 255 258 259 261 264 265 266 267 269 270 270 272 273 274 275 276 278 279 281 282 283 285 286 287 288 289 290 290 290
233 234 236 238 240 241 241 242 240 242 243 244 245 246 247 249 249 251 252 254 256 258 260 262 264 266 267 268 270 271 272 274 276 276 277 278 279 280 281 282 284 285 287 288 289 289 291 291 291
234 234 236 238 240 241 242 244 241 242 243 244 245 246 248 250 251 252 253 255 257 259 261 263 265 266 268 269 270 272 274 276 277 278 279 279 280 281 282 283 285 286 287 288 289 289 291 292 293
234 235 236 238 241 242 242 245 244 243 245 245 246 248 249 251 252 253 254 255 257 259 261 263 265 267 268 270 271 273 275 277 278 279 280 280 281 282 283 284 286 287 288 289 289 291 292 293 293
233 234 236 238 240 242 242 245 246 245 246 247 246 248 250 251 253 254 255 256 258 260 262 263 265 267 269 271 273 274 276 277 279 280 281 282 283 283 284 286 287 288 289 290 291 292 293 293 293
234 235 237 240 243 244 244 246 247 247 248 248 248 249 250 252 253 254 255 257 258 260 261 263 265 267 269 271 273 275 276 277 279 280 282 283 284 285 286 287 289 290 290 291 292 292 293 293 293
233 234 236 239 242 245 246 246 248 249 249 250 250 249 251 252 254 255 256 257 259 260 262 264 266 267 269 272 274 275 276 278 279 281 283 284 286 287 288 289 290 291 291 292 292 293 293 293 293
234 234 235 237 240 244 247 248 249 249 249 250 251 251 252 253 254 255 257 258 260 261 263 265 266 268 270 272 274 275 276 278 279 281 282 284 286 288 289 290 291 291 292 292 292 293 294 293 293
234 233 235 237 239 242 246 249 250 252 251 251 251 252 252 253 254 255 256 258 260 261 263 265 267 269 271 273 275 276 277 278 280 281 283 284 287 289 290 290 291 291 291 292 293 293 293 293 294
235 235 236 238 240 241 245 249 251 253 254 254 254 253 253 254 255 256 257 258 260 262 264 266 268 270 272 274 274 275 277 279 280 282 284 285 287 288 290 291 291 291 291 292 293 293 293 294 295
Height
5799 5802 5804 5807 5810 5812 5815 5818 5819 5821 5824 5826 5828 5830 5831 5832 5835 5838 5839 5840 5841 5843 5844 5846 5847 5848 5849 5850 5851 5852 5853 5853 5854 5855 5855 5856 5856 5857 5857 5857 5858 5858 5858 5858 5858 5858 5858 5858 5858
5794 5797 5800 5802 5805 5808 5812 5813 5815 5817 5820 5822 5824 5826 5827 5828 5831 5833 5834 5836 5838 5840 5841 5842 5844 5845 5846 5847 5848 5849 5850 5851 5851 5852 5853 5853 5854 5854 5854 5855 5855 5855 5855 5856 5856 5856 5856 5856 5855
5789 5792 5795 5798 5801 5804 5807 5807 5809 5812 5815 5818 5820 5822 5823 5826 5828 5829 5830 5832 5834 5836 5837 5839 5840 5842 5843 5844 5845 5846 5847 5848 5848 5849 5849 5850 5851 5851 5851 5852 5852 5852 5852 5852 5852 5852 5852 5852 5852
5784 5787 5790 5794 5797 5799 5801 5802 5805 5808 5811 5813 5815 5817 5819 5822 5824 5825 5826 5828 5830 5832 5834 5835 5837 5838 5839 5841 5842 5843 5844 5844 5845 5846 5846 5847 5847 5848 5848 5848 5848 5849 5849 5849 5849 5849 5849 5849 5849
5779 5782 5785 5788 5792 5794 5796 5798 5801 5803 5806 5808 5810 5813 5815 5817 5819 5820 5822 5825 5826 5828 5830 5831 5833 5834 5836 5837 5838 5839 5840 5841 5841 5842 5843 5843 5844 5844 5844 5844 5844 5845 5845 5845 5845 5845 5845 5845 5844
5774 5777 5780 5783 5787 5789 5791 5794 5796 5798 5801 5803 5805 5808 5811 5812 5815 5816 5818 5820 5822 5824 5826 5827 5829 5830 5832 5833 5834 5835 5836 5837 5838 5838 5839 5839 5839 5840 5840 5840 5840 5840 5841 5841 5841 5841 5840 5840 5840
5769 5771 5774 5778 5780 5783 5786 5788 5791 5793 5795 5798 5800 5803 5805 5808 5810 5812 5814 5816 5818 5820 5822 5823 5825 5826 5827 5829 5830 5831 5832 5833 5833 5834 5835 5835 5835 5836 5836 5836 5836 5836 5836 5836 5836 5836 5836 5835 5835
5762 5766 5769 5772 5775 5778 5780 5783 5785 5788 5790 5793 5795 5798 5801 5804 5805 5807 5809 5811 5813 5815 5817 5819 5821 5822 5823 5824 5826 5827 5828 5829 5829 5830 5830 5831 5831 5831 5831 5831 5831 5831 5831 5831 5831 5831 5831 5830 5830
5756 5761 5764 5767 5769 5772 5775 5778 5780 5782 5785 5787 5790 5794 5797 5799 5800 5802 5804 5807 5809 5811 5813 5815 5816 5817 5819 5820 5821 5822 5823 5824 5825 5825 5826 5826 5826 5826 5826 5826 5826 5826 5826 5826 5826 5826 5825 5825 5825
5750 5755 5759 5761 5763 5766 5769 5772 5775 5777 5780 5782 5785 5788 5791 5793 5795 5797 5800 5802 5804 5806 5808 5810 5811 5813 5814 5815 5816 5818 5819 5819 5820 5820 5821 5821 5821 5821 5821 5821 5821 5821 5821 5821 5820 5820 5820 5819 5819
5745 5749 5753 5754 5757 5760 5764 5767 5769 5772 5775 5777 5780 5783 5785 5788 5790 5792 5794 5797 5799 5801 5803 5805 5806 5808 5809 5810 5811 5813 5813 5814 5815 5815 5816 5816 5816 5816 5816 5816 5816 5815 5815 5815 5814 5814 5813 5813 5812
5739 5743 5745 5748 5751 5755 5758 5761 5764 5766 5770 5772 5775 5777 5780 5783 5785 5787 5789 5791 5793 5796 5798 5799 5801 5802 5804 5805 5806 5807 5808 5809 5809 5810 5810 5810 5810 5810 5810 5810 5810 5809 5809 5808 5808 5807 5807 5806 5805
5731 5736 5739 5742 5745 5749 5752 5755 5758 5761 5764 5766 5769 5772 5775 5777 5779 5781 5784 5786 5788 5790 5792 5794 5795 5797 5798 5799 5800 5801 5802 5803 5803 5803 5804 5804 5804 5804 5804 5804 5804 5803 5803 5802 5802 5801 5800 5799 5798
5725 5729 5732 5736 5739 5743 5746 5749 5752 5756 5758 5761 5763 5766 5769 5771 5773 5776 5778 5780 5782 5785 5786 5788 5790 5791 5792 5793 5794 5795 5796 5796 5797 5797 5797 5798 5798 5798 5798 5797 5797 5796 5796 5795 5794 5794 5793 5792 5791
5718 5722 5725 5729 5733 5737 5740 5743 5747 5750 5752 5755 5758 5760 5763 5765 5768 5770 5772 5774 5777 5779 5781 5782 5784 5785 5786 5787 5788 5789 5790 5790 5791 5791 5791 5791 5791 5791 5791 5791 5790 5789 5789 5788 5787 5786 5785 5784 5782
5710 5714 5719 5724 5727 5730 5734 5738 5742 5743 5746 5749 5752 5754 5757 5760 5762 5764 5766 5769 5771 5773 5775 5776 5778 5779 5780 5781 5782 5783 5783 5784 5784 5784 5784 5784 5784 5784 5784 5784 5783 5782 5781 5780 5779 5777 5776 5775 5773
5703 5708 5712 5717 5720 5723 5727 5731 5735 5737 5740 5743 5746 5748 5751 5753 5756 5758 5761 5763 5765 5767 5769 5770 5772 5773 5774 5775 5776 5776 5777 5777 5777 5778 5778 5778 5777 5777 5776 5776 5775 5774 5773 5771 5770 5768 5767 5765 5763
5698 5702 5705 5709 5713 5716 5719 5724 5728 5731 5733 5736 5739 5742 5744 5747 5750 5752 5754 5757 5759 5761 5763 5764 5765 5767 5768 5769 5769 5770 5770 5770 5770 5770 5770 5770 5770 5769 5769 5768 5767 5765 5764 5762 5760 5759 5756 5754 5752
5689 5693 5697 5701 5705 5709 5712 5716 5720 5724 5727 5730 5733 5736 5738 5741 5743 5746 5748 5750 5752 5755 5756 5758 5759 5760 5761 5762 5762 5763 5763 5763 5763 5763 5763 5762 5762 5761 5760 5759 5758 5756 5755 5753 5750 5748 5746 5743 5740
5680 5685 5689 5693 5696 5700 5704 5708 5712 5716 5720 5724 5727 5729 5732 5734 5737 5739 5742 5744 5746 5748 5750 5751 5752 5753 5754 5754 5755 5755 5755 5755 5755 5755 5754 5754 5753 5752 5751 5750 5748 5747 5745 5743 5740 5737 5735 5732 5728
5673 5678 5682 5685 5688 5692 5696 5700 5705 5709 5713 5716 5719 5722 5725 5727 5730 5733 5735 5737 5739 5741 5743 5744 5744 5745 5746 5747 5747 5747 5747 5747 5747 5746 5746 5745 5744 5743 5742 5740 5739 5737 5734 5732 5729 5726 5723 5720 5717
5665 5670 5673 5676 5680 5684 5688 5691 5698 5701 5705 5709 5712 5715 5718 5721 5723 5726 5728 5730 5732 5734 5735 5736 5737 5738 5739 5739 5739 5739 5739 5739 5738 5738 5737 5735 5734 5733 5731 5730 5728 5726 5724 5721 5718 5715 5711 5707 5704
5656 5661 5665 5668 5671 5675 5679 5682 5690 5693 5697 5701 5705 5708 5711 5713 5716 5718 5721 5723 5724 5726 5727 5728 5729 5730 5731 5731 5731 5731 5731 5731 5730 5728 5727 5726 5724 5722 5721 5719 5717 5715 5713 5710 5706 5703 5699 5695 5691
5646 5652 5656 5659 5661 5665 5672 5675 5679 5685 5690 5694 5698 5700 5703 5706 5708 5710 5713 5715 5716 5718 5719 5720 5721 5722 5723 5723 5723 5723 5722 5722 5720 5719 5717 5716 5714 5712 5711 5708 5706 5703 5700 5697 5694 5690 5686 5682 5677
5637 5643 5647 5649 5652 5657 5664 5665 5670 5677 5681 5685 5690 5692 5695 5697 5700 5702 5705 5707 5708 5710 5711 5712 5713 5714 5714 5714 5714 5714 5713 5712 5711 5709 5708 5706 5704 5702 5700 5697 5695 5692 5688 5685 5681 5677 5673 5668 5663
5628 5634 5639 5643 5646 5650 5654 5656 5663 5668 5673 5676 5680 5684 5686 5689 5691 5694 5696 5698 5700 5701 5702 5703 5704 5705 5705 5705 5705 5704 5703 5702 5701 5699 5698 5696 5694 5692 5689 5686 5683 5679 5675 5672 5668 5664 5659 5654 5650
5618 5623 5630 5634 5636 5640 5644 5649 5655 5659 5663 5667 5671 5675 5678 5680 5683 5685 5687 5689 5691 5692 5693 5694 5695 5695 5696 5695 5695 5694 5693 5692 5691 5689 5687 5685 5683 5680 5677 5674 5670 5666 5662 5658 5654 5649 5645 5640 5635
5610 5615 5619 5623 5627 5631 5636 5640 5646 5650 5654 5658 5662 5665 5668 5671 5674 5676 5678 5680 5682 5683 5684 5685 5685 5686 5686 5685 5685 5684 5683 5681 5680 5678 5676 5674 5671 5668 5665 5662 5657 5653 5649 5644 5640 5635 5630 5625 5621
5601 5605 5609 5614 5618 5624 5628 5634 5636 5640 5644 5648 5652 5656 5659 5661 5664 5666 5668 5670 5672 5673 5674 5675 5675 5675 5675 5675 5674 5672 5671 5670 5668 5666 5664 5662 5659 5656 5652 5648 5644 5639 5635 5630 5626 5621 5616 5612 5608
5590 5596 5601 5606 5610 5615 5620 5626 5627 5631 5634 5638 5642 5645 5649 5651 5654 5656 5658 5660 5662 5663 5664 5665 5665 5665 5664 5664 5662 5661 5660 5658 5657 5654 5652 5649 5646 5643 5639 5634 5630 5626 5621 5617 5612 5608 5604 5599 5595